This is the latest recevied weather packets stored in our database for station/object WD4LSS. If no packets are shown the sender has not sent any weather packets the latest 10 day(s).
| Time | Temp. | Humidity | Pressure | Rain* | Wind** | Luminosity | Snow |
|---|---|---|---|---|---|---|---|
| 1777733116 | 11.67° C | 60% | 1014.5 hPa | 0 mm | - | - | - |
| 1777732816 | 11.67° C | 62% | 1014.5 hPa | 0 mm | - | - | - |
| 1777731316 | 11.67° C | 66% | 1014.7 hPa | 0 mm | - | - | - |
| 1777728616 | 11.67° C | 72% | 1014.1 hPa | 0 mm | - | - | - |
| 1777728316 | 11.11° C | 71% | 1014.2 hPa | 0 mm | - | - | - |
| 1777727116 | 11.67° C | 74% | 1014.3 hPa | 0 mm | - | - | - |
| 1777725636 | 11.11° C | 76% | 1014.3 hPa | 0 mm | - | - | - |
| 1777723816 | 11.11° C | 79% | 1014 hPa | 0 mm | - | - | - |
| 1777723216 | 11.11° C | 80% | 1014 hPa | 0 mm | - | - | - |
| 1777721136 | 10.56° C | 87% | 1013.7 hPa | 0 mm | - | - | - |
| 1777720216 | 10.56° C | 89% | 1013.6 hPa | 0 mm | - | - | - |
| 1777718416 | 10° C | 92% | 1013.5 hPa | 0 mm | - | - | - |
| 1777718116 | 10° C | 92% | 1013.5 hPa | 0 mm | - | - | - |
| 1777717236 | 10.56° C | 92% | 1013.6 hPa | 0 mm | - | - | - |
| 1777714816 | 10.56° C | 91% | 1014 hPa | 0 mm | - | - | - |
| 1777714516 | 10.56° C | 91% | 1014.2 hPa | 0 mm | - | - | - |
| 1777713915 | 10.56° C | 91% | 1014.1 hPa | 0 mm | - | - | - |
| 1777713622 | 10.56° C | 91% | 1014.3 hPa | 0 mm | - | - | - |
| 1777713322 | 10.56° C | 91% | 1014.3 hPa | 0 mm | - | - | - |
| 1777712722 | 10.56° C | 91% | 1014.1 hPa | 0 mm | - | - | - |
| 1777710022 | 10.56° C | 90% | 1013.7 hPa | 0 mm | - | - | - |
| 1777706717 | 10.56° C | 88% | 1013 hPa | 0 mm | - | - | - |
| 1777705816 | 11.11° C | 88% | 1012.8 hPa | 0 mm | - | - | - |
| 1777704616 | 11.11° C | 88% | 1012.9 hPa | 0 mm | - | - | - |
| 1777704316 | 11.11° C | 88% | 1012.9 hPa | 0 mm | - | - | - |
* Rain latest hour (hover to see other rain measurements)
** Current wind speed in m/s (hover to see current wind gust speed)